User: anonymous   Login
Location: Unspecified
(0.0000°N, 0.0000°E)
Time: 19:06:05
(UTC+00:00)
Language:

TBA - TO BE ASSIGNED - Orbit

View from above orbital plane
View from above orbital plane
View from above satellite
View from above satellite

Ground track
Ground track

The orbit is defined by the following mean orbital elements,

1 67447U          26145.30533176 +.00000000 +00000-0 +89776-3 0 00007
2 67447  43.0003 132.1819 0000967 268.9009  91.1732 15.27546603    03
Epoch (UTC): 25 May 2026 07:19:40
Eccentricity: 0.0000967
inclination: 43.0003°
perigee height: 482 km
apogee height: 484 km
right ascension of ascending node: 132.1819°
argument of perigee: 268.9009°
revolutions per day: 15.27546603
mean anomaly at epoch: 91.1732°

The dashed part of the orbit path shows where the satellite is in the earth's shadow,  

DLR